User: anonymous   Login
Location: Niverville
(49.6028°N, 97.0419°W)
Time: 18:04:05
(UTC-05:00)
Language:

Cosmos 2237 Rocket - Orbit

View from above orbital plane
View from above orbital plane
View from above satellite
View from above satellite

Ground track
Ground track

The orbit data is extracted from the following two-line orbital elements,

1 22566U 93016B   17267.32116085 +.00000134 +00000-0 +93590-4 0  9997
2 22566 071.0075 218.8333 0011367 331.6403 028.4100 14.14953478265283
Epoch (UTC): 24 September 2017 07:42:28
Eccentricity: 0.0011367
inclination: 71.0075°
perigee height: 834 km
apogee height: 850 km
right ascension of ascending node: 218.8333°
argument of perigee: 331.6403°
revolutions per day: 14.14953478
mean anomaly at epoch: 28.4100°
orbit number at epoch: 26528

The dashed part of the orbit path shows where the satellite is in the earth's shadow,  

DLR